www.pogodaiklimat.ru
Время
(UTC), дата
16 18.09
17 18.09
18 18.09
20 18.09
19 18.09
21 18.09
22 18.09
23 18.09
00 19.09
02 19.09
01 19.09
03 19.09
04 19.09
05 19.09
06 19.09
08 19.09
07 19.09
09 19.09
10 19.09
11 19.09
12 19.09
14 19.09
13 19.09
15 19.09
16 19.09
17 19.09
18 19.09
20 19.09
19 19.09
21 19.09
22 19.09
23 19.09
00 20.09
02 20.09
01 20.09
03 20.09
04 20.09
05 20.09
06 20.09
08 20.09
07 20.09
09 20.09
10 20.09
11 20.09
12 20.09
14 20.09
13 20.09
15 20.09
16 20.09
17 20.09
18 20.09
20 20.09
19 20.09
21 20.09
22 20.09
23 20.09
00 21.09
02 21.09
01 21.09
03 21.09
04 21.09
05 21.09
06 21.09
08 21.09
07 21.09
09 21.09
10 21.09
11 21.09
12 21.09
14 21.09
13 21.09
15 21.09
16 21.09
17 21.09
18 21.09
20 21.09
19 21.09
21 21.09
22 21.09
23 21.09
00 22.09
02 22.09
01 22.09
03 22.09
04 22.09
05 22.09
06 22.09
08 22.09
07 22.09
09 22.09
10 22.09
11 22.09
12 22.09
14 22.09
13 22.09
15 22.09
16 22.09
17 22.09
18 22.09
20 22.09
19 22.09
21 22.09
22 22.09
23 22.09
00 23.09
02 23.09
01 23.09
03 23.09
04 23.09
05 23.09
06 23.09
08 23.09
07 23.09
09 23.09
10 23.09
11 23.09
12 23.09
14 23.09
13 23.09
15 23.09
16 23.09
17 23.09
18 23.09
20 23.09
19 23.09
21 23.09
22 23.09
23 23.09
00 24.09
02 24.09
01 24.09
03 24.09
04 24.09
05 24.09
06 24.09
08 24.09
07 24.09
09 24.09
10 24.09
11 24.09
12 24.09
14 24.09
13 24.09
15 24.09
16 24.09
17 24.09
18 24.09
20 24.09
19 24.09
21 24.09
22 24.09
23 24.09
00 25.09
02 25.09
01 25.09
03 25.09
04 25.09
05 25.09
06 25.09
08 25.09
07 25.09
09 25.09
10 25.09
11 25.09
12 25.09
14 25.09
13 25.09
15 25.09
Ветер
(напр.,м/с)
Видим. Явления Облачность Т
(С)
Тd
(С)
f
(%)
Тe
(С)
Тes
(С)
Комфортность P
(гПа)
Po
(гПа)
Тmin
(С)
Tmax
(С)
R
(мм)
R24
(мм)
S
(см)
ЮЗ 1 15 км слаб. дождь 10/10 1500 м
[]
+23.9 +17.4 67 +28 +28 душно 1012.8 1009.8 0.0
СВ 1 15 км слаб. дождь 10/10
[]
+23.0 +18.5 76 +29 +29 очень
душно
1012.8 1009.8 0.4
СВ 3
{5}
24 км 9/0
[]
+22.5 +17.4 73 +27 +27 душно 1012.6 1009.6 +16.7 +26.3 0.4 0
В 2 22 км 10/10
[]
+21.4 +17.0 76 +25 +25 комфорт 1013.1 1010.1
В 2 23 км 10/10
[]
+21.7 +17.1 75 +26 +26 душно 1012.9 1009.9
В 2
{4}
21 км 10/0
[]
+20.9 +16.9 78 +25 +25 комфорт 1013.0 1010.0 0
СВ 1 26 км 10/10
[]
+20.7 +16.3 76 +26 +26 душно 1012.9 1009.9
В 1 30 км 10/10
[]
+20.6 +16.0 75 +25 +25 комфорт 1012.7 1009.7
В 4
{6}
35 км 10/0
[]
+20.7 +16.1 75 +24 +24 комфорт 1012.3 1009.3 0
В 2 22 км слаб. дождь 10/10
[]
+20.2 +17.4 84 +24 +24 комфорт 1012.1 1009.1 0.0
В 2 28 км 10/10
[]
+20.5 +16.7 79 +25 +25 комфорт 1012.0 1009.0
В 3
{5}
16 км дождь 10/10 1500 м
[]
+19.8 +18.1 90 +23 +23 комфорт 1011.8 1008.8 0.0 0
В 2 13 км слаб. дождь 10/1 1440 м
[]
+19.3 +18.1 93 +22 +22 комфорт 1011.5 1008.5 0.0
СВ 1 12 км 10/10 1500 м
[]
+19.2 +18.2 94 +22 +22 комфорт 1011.5 1008.5 0.0
СВ 2
{4}
9000 м 10/10 200 м
[]
+19.0 +18.2 95 +21 +21 комфорт 1011.7 1008.7 +19.0 +22.4 0.0 0.4 0
СВ 1 14 км 10/10 210 м
[]
+19.9 +18.4 91 +24 +24 комфорт 1011.7 1008.7
СВ 1 11 км 10/1 1260 м
[]
+19.3 +18.5 95 +23 +23 комфорт 1011.7 1008.7
СВ 4
{7}
17 км 10/10 200 м
[]
+20.5 +18.4 88 +24 +24 комфорт 1012.1 1009.1 0.0 0
СВ 2 35 км 10/10 330 м
[]
+20.3 +17.7 85 +24 +24 комфорт 1012.2 1009.2
СВ 2 45 км 10/10 400 м
[]
+20.2 +18.1 88 +24 +24 комфорт 1012.2 1009.2 0.4
СВ 4
{7}
50 км 10/10 300 м
[]
+21.3 +17.5 79 +25 +25 комфорт 1011.9 1008.9 0.4 0
СВ 2 35 км н/о +24.1 +17.1 65 +28 +28 душно 1010.7 1007.7
СВ 4
{7}
55 км 9/9 600 м
[]
+22.7 +17.6 73 +28 +28 душно 1011.4 1008.4
С 1
{7}
18 км 10/10 1000 м
[]
+22.9 +16.9 69 +28 +28 душно 1010.6 1007.6 0
Ю 1 5000 м дождь 10/6 900 м
[]
+18.9 +18.2 96 +21 +22 комфорт 1011.4 1008.4 14
СВ 1 45 км н/о +19.5 +17.1 86 +23 +23 комфорт 1010.9 1007.9 3
СЗ 1
{5}
50 км н/о +18.4 +16.0 86 +21 +21 комфорт 1011.1 1008.0 +18.4 +24.6 17 0
В 1 35 км н/о +17.2 +16.2 94 +19 +19 тепло 1012.6 1009.5
В 1 45 км н/о +17.4 +16.3 93 +18 +18 тепло 1012.3 1009.2 0.0
В 2
{3}
40 км н/о +17.3 +16.3 94 +18 +18 тепло 1012.9 1009.8 0.0 0
СВ 1 35 км н/о +16.8 +16.0 95 +18 +18 тепло 1013.1 1010.0
СВ 1 25 км н/о +16.5 +15.9 96 +17 +17 тепло 1013.0 1009.9
С 1
{3}
9000 м н/о +15.7 +15.1 96 +16 +16 тепло 1013.1 1010.0 0
штиль 0 200 м туман н/о +15.7 +15.5 99 +15 +15 тепло 1013.2 1010.1
С 1 3300 м дымка н/о +15.7 +15.4 98 +17 +17 тепло 1013.2 1010.1
СВ 1
{2}
200 м туман н/о +15.4 +15.2 99 +16 +16 тепло 1013.4 1010.3 0
СВ 1 500 м туман н/о +15.5 +15.3 99 +17 +17 тепло 1013.3 1010.2
СВ 1 10 км н/о +16.4 +16.2 99 +17 +17 тепло 1013.5 1010.4
С 1
{3}
10 км н/о +16.4 +16.2 99 +17 +17 тепло 1013.8 1010.7 +14.8 +18.4 0.0 17.3
В 1 19 км н/о +17.3 +17.0 98 +18 +18 тепло 1014.6 1011.5
В 1 13 км н/о +17.0 +16.8 99 +18 +18 тепло 1014.4 1011.3
Ю 2
{3}
17 км н/о +19.5 +17.1 86 +22 +22 комфорт 1014.8 1011.7 0
СВ 1 22 км н/о +21.6 +18.4 82 +26 +26 душно 1014.8 1011.8
В 1 18 км 10/10 2000 м
[]
+21.9 +16.8 73 +26 +26 душно 1014.9 1011.9
СВ 1
{2}
45 км 10/0
[]
+22.5 +16.5 69 +27 +33 душно 1014.8 1011.8 0
С 1 40 км 10/10
[]
+24.6 +16.6 61 +28 +28 душно 1014.2 1011.2
ЮЗ 1 35 км 10/10
[]
+23.5 +16.0 63 +27 +27 душно 1014.7 1011.7 0.2
З 1
{3}
45 км 10/0
[]
+24.6 +16.8 62 +28 +31 душно 1014.0 1011.0 0.2 0
З 1 40 км н/о +25.5 +17.2 60 +29 +29 душно 1014.0 1011.0
ЮЗ 1 19 км 8/4 1320 м
[]
+22.8 +17.3 71 +28 +28 душно 1014.0 1011.0
ЮЗ 2
{6}
1900 м слаб. дождь 10/10 300 м
[]
+20.1 +17.9 87 +24 +24 комфорт 1014.8 1011.8 +16.2 +25.8 4 0
Ю 1 5000 м слаб. дождь 10/10 150 м
[]
+18.8 +18.1 96 +21 +21 комфорт 1016.2 1013.1 4
З 1 7000 м слаб. дождь 10/10 800 м
[]
+19.0 +18.0 94 +22 +22 комфорт 1015.6 1012.5 1
Ю 3
{3}
10 км 10/10 600 м
[]
+18.3 +17.7 96 +19 +19 тепло 1016.0 1012.9 6 0
С 1 6000 м 10/1 930 м
[]
+18.1 +17.6 97 +20 +20 тепло 1016.1 1013.0
Ю 1 4500 м дымка 10/10 90 м
[]
+18.1 +17.8 98 +20 +20 тепло 1015.9 1012.8 0.8
СЗ 1
{2}
4500 м дымка 10/10 <50 м
[]
+18.1 +17.8 98 +19 +19 тепло 1015.9 1012.8 1 0
ЮЗ 1 100 м туман ?/? +17.5 +17.3 99 +19 +19 тепло 1015.8 1012.7
З 1 700 м туман 10/5 60 м
[]
+18.0 +17.7 98 +20 +20 тепло 1015.9 1012.8
Ю 1
{2}
1900 м дымка 10/10 50 м
[]
+18.0 +17.8 99 +20 +20 тепло 1015.5 1012.4 0
З 1 1000 м туман местами 10/4 90 м
[]
+17.9 +17.7 99 +19 +19 тепло 1015.6 1012.5
штиль 0 200 м туман ?/? +17.9 +17.7 99 +18 +18 тепло 1015.9 1012.8
ЮЗ 1
{2}
500 м туман ?/? +17.9 +17.7 99 +19 +19 тепло 1016.2 1013.1 +17.4 +20.1 7 10.7 0
С 1 4100 м дымка 10/10 120 м
[]
+18.2 +17.9 98 +20 +20 тепло 1016.8 1013.7
СЗ 1 2200 м дымка 10/10 60 м
[]
+18.1 +17.9 99 +20 +20 тепло 1016.6 1013.5
СЗ 1
{3}
6000 м 10/10 200 м
[]
+19.0 +18.0 94 +22 +22 комфорт 1017.0 1013.9 0
З 1 7000 м 10/10 270 м
[]
+20.2 +18.0 87 +25 +25 комфорт 1017.1 1014.1
З 1 12 км 9/6 450 м
[]
+21.2 +17.4 79 +25 +28 комфорт 1017.0 1014.0
СЗ 2
{5}
17 км 10/10 300 м
[]
+22.2 +17.6 75 +27 +27 душно 1016.8 1013.8 0
З 1 28 км 8/8 750 м
[]
+23.1 +17.3 70 +28 +30 душно 1016.1 1013.1
З 1 19 км 9/4 630 м
[]
+23.0 +17.7 72 +28 +32 душно 1016.4 1013.4
СЗ 3
{5}
20 км н/о +24.7 +17.4 64 +29 +29 душно 1015.7 1012.7 0
З 2 27 км 9/9 800 м
[]
+22.7 +17.4 72 +28 +28 душно 1015.4 1012.4
З 2 27 км н/о +21.9 +17.1 74 +26 +26 душно 1015.7 1012.7
З 4
{7}
21 км н/о +19.6 +16.6 83 +22 +22 комфорт 1016.1 1013.0 +17.9 +24.7 0
З 2 9000 м н/о +16.8 +16.0 95 +17 +17 по сезону 1016.6 1013.5
З 2 10 км н/о +17.7 +16.4 92 +18 +18 тепло 1016.4 1013.3
З 2
{5}
10 км 10/10 200 м
[]
+17.0 +16.2 95 +17 +17 тепло 1016.5 1013.4 0
З 2 12 км 10/10 270 м
[]
+16.9 +15.8 93 +17 +17 тепло 1016.4 1013.3
З 1 13 км 10/10 300 м
[]
+17.0 +15.7 92 +18 +18 тепло 1016.2 1013.1
З 3
{5}
12 км 10/10 200 м
[]
+16.7 +15.2 91 +17 +17 тепло 1016.0 1012.9 0
З 1 8000 м 10/10 300 м
[]
+16.6 +15.6 94 +18 +18 тепло 1015.1 1012.0
З 1 9000 м 10/10 240 м
[]
+16.7 +15.4 92 +18 +18 тепло 1015.7 1012.6
ЮЗ 2
{3}
9000 м 10/10 300 м
[]
+16.7 +15.7 94 +17 +17 тепло 1014.7 1011.6 0
З 1 10 км 10/10 500 м
[]
+16.8 +15.7 93 +18 +18 тепло 1014.2 1011.1
З 1 10 км 10/10 570 м
[]
+16.9 +15.8 93 +18 +18 тепло 1014.0 1010.9
З 1
{2}
10 км 10/10 600 м
[]
+16.9 +15.8 93 +18 +18 тепло 1014.0 1010.9 +16.6 +19.5 0
З 1 15 км 10/10 630 м
[]
+17.8 +15.8 88 +19 +19 тепло 1014.2 1011.1
З 1 10 км 10/10 660 м
[]
+17.2 +16.1 93 +18 +18 тепло 1014.2 1011.1
З 4
{6}
16 км 10/10 300 м
[]
+18.0 +15.3 84 +18 +18 тепло 1014.4 1011.3 0
З 2 30 км 10/10 630 м
[]
+19.3 +15.2 77 +22 +22 комфорт 1014.3 1011.2
З 2 50 км 8/8 700 м
[]
+20.7 +15.3 71 +24 +26 комфорт 1013.5 1010.5
З 4
{7}
35 км 10/10 600 м
[]
+20.9 +15.4 71 +24 +24 комфорт 1013.1 1010.1 0
ЮЗ 2 40 км 10/6 840 м
[]
+21.0 +15.3 70 +25 +26 комфорт 1012.2 1009.2
З 3 30 км 9/5 800 м
[]
+21.9 +16.2 70 +26 +28 душно 1012.8 1009.8
З 5
{8}
45 км 10/10 600 м
[]
+22.0 +16.0 69 +26 +26 душно 1011.4 1008.4 0
З 3 45 км н/о +21.8 +15.2 66 +25 +25 комфорт 1011.0 1008.0
З 2 35 км 8/1 750 м
[]
+19.9 +15.3 75 +23 +23 комфорт 1011.0 1008.0
З 3
{6}
35 км н/о +18.6 +15.8 84 +20 +20 тепло 1010.8 1007.8 +16.9 +22.5 0
ЮЗ 2 35 км н/о +17.0 +15.5 91 +18 +18 тепло 1010.9 1007.8
ЮЗ 1 30 км 9/9 1500 м
[]
+17.5 +15.8 90 +19 +19 тепло 1010.8 1007.7
Ю 2
{5}
24 км н/о +16.5 +15.5 94 +17 +17 тепло 1010.7 1007.6 0
Ю 2 19 км н/о +16.3 +15.7 96 +17 +17 тепло 1010.3 1007.2
Ю 2 23 км 10/6 480 м
[]
+16.5 +15.9 96 +17 +17 тепло 1010.1 1007.0
Ю 4
{5}
25 км 10/10 200 м
[]
+17.1 +16.3 95 +17 +17 тепло 1009.8 1006.7 0
Ю 2 28 км 10/10 2000 м
[]
+16.9 +15.8 93 +17 +17 тепло 1008.9 1005.8
Ю 2 27 км 10/1 270 м
[]
+17.0 +16.2 95 +17 +17 тепло 1009.4 1006.3
Ю 2
{5}
20 км 9/9 300 м
[]
+16.7 +15.9 95 +17 +17 тепло 1008.4 1005.3 0
Ю 1 17 км 10/10 2000 м
[]
+16.8 +16.2 96 +18 +18 тепло 1008.1 1005.0
Ю 1 1400 м сильн. дождь 10/8 420 м
[]
+16.7 +16.1 96 +18 +18 тепло 1007.8 1004.7 1
Ю 3
{4}
11 км 9/9 300 м
[]
+16.2 +15.7 97 +16 +16 тепло 1007.6 1004.5 +16.2 +18.6 2 1.6 0
Ю 2 19 км н/о +18.2 +17.2 94 +19 +19 тепло 1007.1 1004.1
Ю 2 16 км 10/4 480 м
[]
+16.7 +16.2 97 +17 +17 тепло 1007.6 1004.5
Ю 5
{8}
2200 м дождь 10/10 300 м
[]
+18.6 +17.1 91 +19 +19 тепло 1007.0 1004.0 1 0
ЮЗ 2 30 км 9/9 660 м
[]
+19.8 +17.2 85 +23 +24 комфорт 1006.7 1003.7 0.2
ЮЗ 2 22 км 10/1 800 м
[]
+19.9 +16.3 80 +23 +27 комфорт 1006.4 1003.4
ЮЗ 5
{8}
23 км слаб. дождь 10/10 600 м
[]
+19.1 +16.1 83 +20 +20 по сезону 1005.9 1002.9 0.2 0
ЮЗ 2 30 км 8/6 330 м
[]
+18.7 +16.8 89 +20 +22 по сезону 1005.0 1002.0 1
ЮЗ 2 8000 м слаб. дождь 10/9 240 м
[]
+18.2 +17.4 95 +19 +19 по сезону 1005.6 1002.6 1
ЮЗ 3
{6}
35 км 10/10 300 м
[]
+18.6 +16.7 89 +20 +20 тепло 1004.6 1001.6 2 0
З 3 8000 м слаб. дождь 10/9 240 м
[]
+17.0 +16.0 94 +17 +17 по сезону 1004.9 1001.9 2
З 3 40 км 9/8 480 м
[]
+17.3 +15.3 88 +17 +17 по сезону 1005.3 1002.3
З 3
{11}
55 км 10/10 1500 м
[]
+15.6 +12.7 83 +15 +15 по сезону 1006.0 1002.9 +15.6 +20.1 2 0
З 1 45 км н/о +13.1 +11.5 90 +13 +13 прохладно 1008.0 1004.9
З 2 50 км 8/8
[]
+15.2 +11.8 80 +15 +15 по сезону 1007.0 1003.9
З 2
{5}
40 км н/о +12.7 +10.4 86 +12 +12 по сезону 1008.3 1005.2 0
штиль 0 35 км н/о +11.3 +10.0 92 +11 +11 по сезону 1008.6 1005.5
ЮЗ 1 35 км н/о +10.5 +9.9 96 +11 +11 по сезону 1008.7 1005.6
Ю 1
{4}
21 км н/о +10.0 +9.4 96 +9 +9 по сезону 1008.6 1005.5 0
Ю 2 35 км н/о +10.0 +9.5 97 +9 +9 по сезону 1008.0 1004.9
Ю 1 19 км н/о +9.2 +8.6 96 +8 +8 по сезону 1008.5 1005.3
Ю 2
{4}
19 км н/о +10.6 +9.7 94 +9 +9 по сезону 1007.5 1004.4 0
Ю 2 45 км 8/8 1170 м
[]
+11.2 +9.9 92 +10 +10 по сезону 1006.7 1003.6
Ю 2 45 км 9/9 1500 м
[]
+12.6 +11.0 90 +12 +12 тепло 1006.0 1002.9 0.2
Ю 4
{7}
40 км 10/10 1000 м
[]
+12.4 +11.1 92 +11 +11 по сезону 1005.5 1002.4 +9.2 +15.7 0.2 5.6 0
ЮЗ 2 30 км 10/10 1500 м
[]
+14.3 +13.3 94 +14 +14 тепло 1005.4 1002.3 0.4
З 3 4400 м дождь 10/10 570 м
[]
+14.1 +12.7 91 +13 +13 тепло 1005.6 1002.5 1
Ю 5
{7}
35 км 9/9 1500 м
[]
+15.4 +13.4 88 +14 +14 по сезону 1004.9 1001.8 2 0
ЮЗ 3 19 км 10/10 900 м
[]
+16.8 +12.5 76 +17 +17 тепло 1004.4 1001.3
Ю 4 30 км 10/9 1050 м
[]
+16.9 +11.8 72 +17 +17 тепло 1003.3 1000.3
ЮЗ 6
{14}
7000 м дождь 10/10 600 м
[]
+14.9 +12.0 83 +13 +13 холодно 1003.4 1000.3 0.6 0
З 4 17 км 10/4 1320 м
[]
+15.0 +11.4 79 +14 +15 холодно 1002.3 999.2 0.2
З 3 7000 м слаб. дождь н/о +15.2 +13.2 88 +14 +14 холодно 1002.4 999.3 1
З 7
{15}
40 км 9/9 600 м
[]
+14.4 +10.2 76 +12 +12 холодно 1002.2 999.1 2 0
З 3 19 км слаб. дождь 10/1 1050 м
[]
+12.4 +8.3 76 +11 +12 холодно 1002.0 998.9 0.4
З 3 18 км 10/10 1170 м
[]
+13.2 +8.5 73 +12 +12 холодно 1002.3 999.2 0.0
З 5
{14}
45 км н/о +11.2 +7.9 80 +8 +8 очень
холодно
1003.1 1000.0 +11.1 +17.5 0.6 0
ЮЗ 3 45 км н/о +10.8 +6.7 76 +9 +9 холодно 1003.9 1000.8 0.2
ЮЗ 2 40 км н/о +9.9 +7.8 87 +9 +9 холодно 1003.5 1000.4
З 9-17
{17}
22 км 9/9 1000 м
[]
+12.7 +6.7 67 +10 +10 прохладно 1004.3 1001.2 0.2 0
З 3 17 км слаб. дождь 10/5 1200 м
[]
+10.0 +7.6 85 +8 +8 холодно 1004.4 1001.3 0.2
ЮЗ 3 30 км 10/10 1500 м
[]
+9.8 +8.2 90 +8 +8 прохладно 1004.1 1001.0 0.8
ЮЗ 4
{9}
19 км слаб. дождь 10/0
[]
+10.5 +9.4 93 +8 +8 прохладно 1003.9 1000.8 1 0
З 2 30 км 9/4 1050 м
[]
+11.0 +8.7 86 +10 +10 по сезону 1003.6 1000.5 0.2
ЮЗ 2 30 км 10/1 1020 м
[]
+10.5 +8.9 90 +9 +9 по сезону 1003.6 1000.5 0.0
З 6
{11}
45 км 10/0
[]
+11.4 +6.9 74 +8 +8 по сезону 1003.8 1000.7 0.2 0
З 4 40 км н/о +11.3 +6.8 74 +9 +9 по сезону 1004.5 1001.4
З 3 45 км н/о +10.8 +6.7 76 +9 +9 тепло 1005.1 1002.0
СЗ 6
{12}
45 км н/о +10.9 +7.0 77 +8 +8 по сезону 1006.1 1003.0 +9.6 +12.8 1 6.0 0
СЗ 4 30 км н/о +12.3 +7.4 72 +11 +11 тепло 1008.4 1005.3
СЗ 4 30 км н/о +11.1 +6.8 75 +9 +9 тепло 1007.2 1004.1
СЗ 8-15
{15}
29 км н/о +13.4 +6.9 65 +11 +11 прохладно 1009.4 1006.3 0
СЗ 4 26 км 9/9 1020 м
[]
+14.0 +7.3 64 +13 +13 по сезону 1010.3 1007.2
СЗ 4 35 км 10/10 1110 м
[]
+14.4 +7.2 62 +13 +13 по сезону 1010.7 1007.6
СЗ 7
{14}
21 км н/о +15.3 +7.1 58 +14 +14 холодно 1011.2 1008.1 0
СЗ 4 55 км 10/10 1260 м
[]
+15.8 +7.3 57 +15 +15 холодно 1012.6 1009.5
СЗ 4 25 км н/о +15.5 +7.0 57 +15 +15 холодно 1011.9 1008.8
СЗ 10-15
{16}
13 км н/о +15.0 +5.2 52 +13 +13 холодно 1013.3 1010.2 0
Местоположение метеостанции Нант (Франция): широта 47.15 долгота -1.60 высота над уровнем моря 27 м.
В архиве по умолчанию представлена погода в Нанте за последнюю неделю. Архивные данные за месяц целиком и за предыдущие месяцы, начиная с января 2011 года, Вы можете получить, выбрав интересующий диапазон дат из раскрывающегося списка и нажав кнопку "Найти!".
*Определитесь, кто Вы:
Внимание! Время в таблицах - всемирное. Для получения местного времени необходимо прибавить поправку, которая равна 1 ч.
Смотрите также архив погоды в соседних городах и на ближайших метеорологических станциях:
Партнеры нашего сайта:      
Пояснения к столбцам:
  • Ветер - указаны скорость ветра в м/с - средняя за 10 мин, порывы в срок и между сроками (в фигурных скобках) и направление, откуда дует ветер: С - северный,
  • СВ - северо-восточный, В - восточный, ЮВ - юго-восточный, Ю - южный, ЮЗ - юго-западный, З - западный, СЗ - северо-западный.
  • Видимость - горизонтальная дальность видимости в метрах или километрах. При видимости от 1 до 10 км при отсутствии осадков обычно наблюдается дымка, при ухудшении видимости до 1 км и менее - туман. В сухую погоду видимость может ухудшаться дымом, пылью или мглою.
  • Явления - указаны атмосферные явления, наблюдавшиеся в срок или в последний час перед сроком; фигурными скобками обозначены явления, наблюдавшиеся между сроками (за 1-3 часа до срока); квадратными скобками обозначены град или гололедные отложения с указанием их диаметра в мм.
  • Облачность - указаны через наклонную черту общая и нижняя облачность в баллах и высота нижней границы облаков в метрах; квадратными скобками обозначены формы облаков: Ci - перистые, Cs - перисто-слоистые, Cc - перисто-кучевые, Ac - высококучевые, As - высокослоистые, Sc - слоисто-кучевые, Ns - слоисто-дождевые, Cu - кучевые, Cb - кучево-дождевые. Подробнее классификацию облаков см. в Атласе облаков (PDF).
  • T - Температура воздуха - температура, измеренная на высоте 2 м над землей.
  • Td - Температура точки росы - температура, при понижении до которой содержащийся в воздухе водяной пар достигнет насыщения.
  • f - Относительная влажность воздуха - влажноcть воздуха, измеренная на высоте 2 м над землей.
  • Te - Эффективная температура - температура, которую ощущает одетый по сезону человек в тени. Характеристика душности погоды. При расчете учитывается влияние влажности воздуха и скорости ветра на теплоощущения человека.
  • Tes - Эффективная температура на солнце - температура, которую ощущает человек, с поправкой на солнечный нагрев. Характеристика знойности погоды. Зависит от высоты солнца над горизонтом, облачности и скорости ветра. Ночью, в пасмурную погоду, а также при ветре 12 м/с и более поправка равна нулю.
  • P - Атмосферное давление - приведенное к уровню моря атмосферное давление.
  • Po - Атмосферное давление - измеренное на уровне метеостанции атмосферное давление.
  • Tmin - Минимальная температура - минимум температуры воздуха на высоте 2 м над землей.
  • Tmax - Максимальная температура - максимум температуры воздуха на высоте 2 м над землей.
  • R - Количество осадков - Количество выпавших осадков за период времени, мм. При наведении курсора мыши на число - период времени, за который выпало указанное количество осадков.
  • R24 - Количество осадков - Количество выпавших осадков за 24 часа, мм.
  • S - Снежный покров - Высота снежного покрова, см. При наведении курсора мыши на число - состояние снежного покрова и степень покрытия местности в баллах.